Regional Weather Roundup
Issued by NWS

Home | Current Version | Previous Version | Text Only | Print | Product List | Glossary On
Versions: 1 2 3 4 5 6 7 8 9 10 11 12 13 14 15 16 17 18 19 20 21 22 23 24 25 26 27 28 29 30 31 32 33 34 35 36 37 38 39 40 41 42 43 44 45 46 47 48 49 50
000
ASUS43 KLOT 191403
RWRIL

ILLINOIS REGIONAL WEATHER ROUNDUP
NATIONAL WEATHER SERVICE CHICAGO/ROMEOVILLE IL
800 AM CST WED DEC 19 2018

NOTE: "FAIR" INDICATES FEW OR NO CLOUDS BELOW 12,000 FEET WITH NO
SIGNIFICANT WEATHER AND/OR OBSTRUCTIONS TO VISIBILITY.

* THESE STATIONS ARE NOT UNDER NWS QUALITY CONTROL. THEY ALSO MAY NOT
  REPORT WEATHER SUCH AS PRECIPITATION OR FOG.

ILZ001-002-007-009-015-016-024-191500-
NORTHWEST ILLINOIS

CITY           SKY/WX    TMP DP  RH WIND       PRES   REMARKS
MOLINE         FAIR      41  31  67 S10       29.80S
STERLING*      FAIR      36  31  82 VRB5      29.85S WCI  32
$$

ILZ003-004-008-010-011-017-018-191500-
NORTH CENTRAL ILLINOIS

CITY           SKY/WX    TMP DP  RH WIND       PRES   REMARKS
ROCKFORD       CLOUDY    34  29  82 S9        29.86F WCI  27
FREEPORT*      FAIR      35  30  83 S12       29.82F WCI  26
ROCHELLE*      FAIR      33  31  92 S13       29.86S WCI  24
DE KALB*       MOCLDY    33  31  93 S10       29.87S WCI  25
PERU*          FAIR      37  32  82 S13       29.87F WCI  29
$$

ILZ005-006-012>014-019>023-191500-
NORTHEAST ILLINOIS

CITY           SKY/WX    TMP DP  RH WIND       PRES   REMARKS
CHICAGO-OHARE  CLOUDY    37  29  72 S8        29.88S WCI  31
CHICAGO-MIDWAY MOCLDY    37  28  70 S9        29.90F WCI  30
AURORA         FAIR      34  29  82 S8        29.87F WCI  27
LANSING*       FAIR      35  28  77 S9        29.91F WCI  28
JOLIET*        FAIR      36  31  83 S7        29.91R WCI  30
WAUKEGAN       MOCLDY    37  28  70 S12       29.85F WCI  29
DUPAGE AIRPORT FAIR      35  29  78 S10       29.87F HAZE    WCI  27
WHEELING       FAIR      38  28  67 S9        29.89F WCI  31
MORRIS*        FAIR      33  31  92 S7        29.89S WCI  27
NORTHERLY ISL    N/A     38  27  65 S7          N/A  WCI  33
$$

LMZ740>746-191500-
SOUTHERN LAKE MICHIGAN

STATION/POSITION SKY/WX   TEMP    WIND        PRES    VSBY  WAVE
                          AIR SEA DIR/SP/G                  HT/PER
                          (F)     (DEG/KT/KT) (MB)    (MI)  (FT/S)
HARRISON CRIB              39     190/ 15/ 16   N/A
NORTHERLY ISL              38     180/  8/ 12   N/A
CALUMET HARBOR             37     170/  8/ 10 1012.2
BURNS HARBOR               35     190/  7/  9 1013.9F
MICHIGAN CITY              36     160/ 15/ 20   N/A
$$

ILZ025>027-034>036-040-047-049-050-058-095>099-191500-
WEST-CENTRAL ILLINOIS

CITY           SKY/WX    TMP DP  RH WIND       PRES   REMARKS
QUINCY         CLEAR     39  31  72 S10       29.84S WCI  32
MACOMB*        PTCLDY    34  31  88 S9        29.86F WCI  27
JACKSONVILLE*  PTCLDY    37  30  77 S8        29.88F WCI  30
PITTSFIELD*    CLEAR     38  32  78 S7        29.88S WCI  33
$$

ILZ028>032-037-038-041>044-048-051>054-059>061-191500-
CENTRAL ILLINOIS

CITY           SKY/WX    TMP DP  RH WIND       PRES   REMARKS
PONTIAC        FAIR      35  34  96 S8        29.91S WCI  28
BLOOMINGTON    FAIR      35  31  85 S13       29.90F WCI  26
DECATUR        FAIR     N/A N/A N/A S10       29.93S
PEORIA         FAIR      35  30  82 S8        29.88S WCI  29
LACON*         MOCLDY    37  30  78 S5        29.86F WCI  33
SPRINGFIELD    FAIR      37  30  75 S14       29.90F WCI  28
TAYLORVILLE    FAIR      37  31  80 S8        29.93S WCI  30
$$

ILZ033-039-045-046-055>057-062-063-191500-
EAST-CENTRAL ILLINOIS

CITY           SKY/WX    TMP DP  RH WIND       PRES   REMARKS
CHAMPAIGN      FAIR      35  31  85 S12       29.93F WCI  27
DANVILLE*      FAIR      34  30  86 S9        29.93F WCI  27
MATTOON        FAIR      34  31  88 S8        29.94F WCI  27
PARIS*         FAIR      34  30  85 SE7       29.97F WCI  28
$$

ILZ079-100>102-191500-
SOUTHWEST ILLINOIS

CITY           SKY/WX    TMP DP  RH WIND       PRES   REMARKS
ALTON          MOCLDY    34  30  86 SE7       29.93S WCI  28
BELLEVILLE     CLOUDY    32  28  86 S3        29.93S
CAHOKIA*       CLOUDY    37  29  72 S7        29.93S WCI  32
SPARTA*        CLOUDY    34  31  90 SE5       29.96S WCI  30
$$

ILZ064>066-069>071-074>076-080>082-084>086-088>090-092>094-191500-
SOUTH-CENTRAL ILLINOIS

CITY           SKY/WX    TMP DP  RH WIND       PRES   REMARKS
CARBONDALE     FAIR      32  29  88 S3        29.97S
CAIRO*         FAIR      31  31 100 CALM      29.99R
EFFINGHAM*     FAIR      36  32  88 SE7       29.98S WCI  30
MARION         PTCLDY    36  30  80 SE6       29.98F WCI  31
MT. VERNON     FAIR      30  29  96 CALM      29.97S
CENTRALIA*     CLOUDY    38  33  81 CALM      29.95F
SALEM*         FAIR      38  31  76 SE3       29.96S
METROPOLIS*    FAIR      33  31  92 CALM      30.00S
$$

ILZ067-068-072-073-078-083-087-091-191500-
SOUTHEAST ILLINOIS

CITY           SKY/WX    TMP DP  RH WIND       PRES   REMARKS
LAWRENCEVILLE  FAIR      35  30  82 SE6       30.00F WCI  30
FLORA*         FAIR      34  32  93 S3        29.98S
HARRISBURG*    FAIR      32  32  99 CALM      29.99S
ROBINSON*      FAIR      31  29  92 SE3       30.00F
$$

ABBREVIATIONS USED IN REMARKS
   TC - TEMPERATURE IN CELSIUS
  WCI - WIND CHILL INDEX
   HX - HEAT INDEX
  VSB - VISIBILITY
$$




USA.gov is the U.S. government's official web portal to all federal, state and local government web resources and services.